Meridianville, AL

3:10 PM CDT on July 23, 2016 (GMT -0500)
Huntsville Madison

Weather History for KMDQ - December, 2013

Change the Weather History Date:

Sunday, December 8, 2013

  Actual Average (KHSV) Record (KHSV)
Temperature  
Mean Temperature 42 °F 45 °F  
Max Temperature 50 °F 55 °F 81 °F (1956)
Min Temperature 33 °F 36 °F 14 °F (2006)
Degree Days  
Heating Degree Days 24 20  
Month to date heating degree days 150  
Since 1 July heating degree days 677  
Cooling Degree Days 0 0  
Month to date cooling degree days 0  
Year to date cooling degree days 1949  
Moisture  
Dew Point 39 °F    
Average Humidity 92    
Maximum Humidity 100    
Minimum Humidity 81    
Precipitation  
Precipitation 0.62 in 0.20 in 3.79 in (2009)
Month to date precipitation 1.56  
Year to date precipitation 50.13  
Snow  
Snow 0.00 in - - ()
Month to date snowfall  
Since 1 July snowfall  
Snow Depth -    
Sea Level Pressure  
Sea Level Pressure 30.14 in    
Wind  
Wind Speed 3 mph (SW)    
Max Wind Speed 10 mph    
Max Gust Speed -    
Visibility 4 miles    
Events Rain , Snow , Thunderstorm    
T = Trace of Precipitation, MM = Missing Value Source: NWS Daily Summary

Daily Weather History Graph

Daily Weather History Graph

Search for Another Location

Airport or City:

Trip Planner

Search our weather history database for the weather conditions in past years. The results will help you decide how hot, cold, wet, or windy it might be!

Date:

Astronomy

Dec. 08, 2013 Rise Set
Actual Time 6:41 AM CST 4:34 PM CST
Civil Twilight 6:13 AM CST 5:02 PM CST
Nautical Twilight 5:42 AM CST 5:34 PM CST
Astronomical Twilight 5:11 AM CST 6:05 PM CST
Moon 11:12 AM CST (12/8) 11:11 PM CST (12/8)
Length of Visible Light 10h 49m
Length of Day
9h 53m
Waxing Crescent, 40% of the Moon is Illuminated
Dec 8
Waxing Crescent
Dec 9
First Quarter
Dec 17
Full
Dec 25
Last Quarter
Jan 1
New

Hourly Weather History & Observations

Time (CST) Temp. Windchill Dew Point Humidity Pressure Visibility Wind Dir Wind Speed Gust Speed Precip Events Conditions
12:15 AM 33.8 °F 28.6 °F 30.2 °F 87% 30.27 in 10.0 mi North 5.8 mph - N/A   Overcast
12:35 AM 35.6 °F 30.7 °F 30.2 °F 81% 30.26 in 10.0 mi NNE 5.8 mph - N/A   Overcast
12:55 AM 33.8 °F 29.6 °F 32.0 °F 93% 30.23 in 10.0 mi ENE 4.6 mph - N/A   Overcast
1:15 AM 35.6 °F - 32.0 °F 87% 30.22 in 10.0 mi Calm Calm - N/A   Overcast
1:35 AM 35.6 °F - 32.0 °F 87% 30.22 in 10.0 mi Calm Calm - N/A   Overcast
1:55 AM 35.6 °F - 32.0 °F 87% 30.21 in 5.0 mi Calm Calm - 0.01 in Rain Light Rain
2:15 AM 35.6 °F - 32.0 °F 87% 30.20 in 4.0 mi Calm Calm - N/A Rain Rain
2:35 AM 35.6 °F - 32.0 °F 87% 30.19 in 3.0 mi Calm Calm - 0.01 in Rain Rain
2:55 AM 35.6 °F 28.0 °F 32.0 °F 87% 30.22 in 2.5 mi WNW 10.4 mph - 0.01 in Rain Rain
3:15 AM 35.6 °F 30.7 °F 32.0 °F 87% 30.20 in 1.5 mi NW 5.8 mph - 0.06 in   Overcast
3:35 AM 35.6 °F 31.7 °F 32.0 °F 87% 30.19 in 1.8 mi North 4.6 mph - 0.07 in Rain Rain
3:55 AM 35.6 °F - 32.0 °F 87% 30.18 in 4.0 mi Calm Calm - 0.07 in   Light Drizzle
4:15 AM 35.6 °F 32.8 °F 32.0 °F 87% 30.18 in 2.0 mi North 3.5 mph - 0.08 in Snow Light Snow
4:35 AM 35.6 °F - 33.8 °F 93% 30.17 in 2.5 mi Calm Calm - 0.11 in Rain Light Rain
4:55 AM 35.6 °F 31.7 °F 33.8 °F 93% 30.18 in 2.5 mi NW 4.6 mph - 0.11 in   Drizzle
5:15 AM 35.6 °F - 33.8 °F 93% 30.17 in 4.0 mi Calm Calm - N/A   Light Drizzle
5:35 AM 35.6 °F - 33.8 °F 93% 30.17 in 3.0 mi Calm Calm - N/A   Overcast
5:55 AM 35.6 °F - 33.8 °F 93% 30.17 in 2.5 mi Calm Calm - N/A Rain Rain
6:15 AM 35.6 °F - 33.8 °F 93% 30.17 in 2.5 mi Calm Calm - 0.01 in Rain Light Rain
6:35 AM 35.6 °F - 33.8 °F 93% 30.16 in 2.0 mi Calm Calm - 0.01 in Thunderstorm Unknown
6:55 AM 35.6 °F 31.7 °F 33.8 °F 93% 30.19 in 2.0 mi NNW 4.6 mph - 0.01 in   Overcast
7:15 AM 35.6 °F - 33.8 °F 93% 30.17 in 1.2 mi Calm Calm - 0.01 in Rain Rain
7:35 AM 35.6 °F - 33.8 °F 93% 30.17 in 1.2 mi Calm Calm - 0.02 in Rain Rain
7:55 AM 35.6 °F 31.7 °F 35.6 °F 100% 30.19 in 1.8 mi West 4.6 mph - 0.02 in   Light Drizzle
8:15 AM 35.6 °F 30.7 °F 35.6 °F 100% 30.20 in 1.8 mi NW 5.8 mph - N/A   Overcast
8:35 AM 35.6 °F 32.8 °F 35.6 °F 100% 30.20 in 1.2 mi NW 3.5 mph - N/A   Drizzle
8:55 AM 35.6 °F - 35.6 °F 100% 30.19 in 1.2 mi Calm Calm - N/A   Drizzle
9:15 AM 37.4 °F 34.9 °F 35.6 °F 93% 30.20 in 1.0 mi WNW 3.5 mph - N/A Rain Rain
9:35 AM 37.4 °F - 35.6 °F 93% 30.20 in 1.8 mi Calm Calm - 0.01 in Rain Rain
9:55 AM 37.4 °F - 35.6 °F 93% 30.20 in 3.0 mi Calm Calm - 0.01 in   Overcast
10:15 AM 37.4 °F 34.9 °F 35.6 °F 93% 30.19 in 4.0 mi NNW 3.5 mph - N/A   Overcast
10:35 AM 37.4 °F - 35.6 °F 93% 30.18 in 1.5 mi Calm Calm - N/A   Overcast
10:55 AM 37.4 °F - 35.6 °F 93% 30.17 in 1.2 mi Calm Calm - N/A   Overcast
11:15 AM 37.4 °F 34.9 °F 37.4 °F 100% 30.16 in 1.8 mi East 3.5 mph - N/A   Drizzle
11:35 AM 39.2 °F - 37.4 °F 93% 30.15 in 1.8 mi Calm Calm - N/A   Overcast
11:55 AM 39.2 °F - 37.4 °F 93% 30.13 in 1.5 mi Calm Calm - N/A   Overcast
12:15 PM 39.2 °F - 37.4 °F 93% 30.13 in 1.8 mi Calm Calm - N/A   Overcast
12:35 PM 41.0 °F - 37.4 °F 87% 30.12 in 1.5 mi Calm Calm - 0.01 in Rain Rain
12:55 PM 41.0 °F - 39.2 °F 93% 30.12 in 2.0 mi Calm Calm - 0.01 in   Drizzle
1:15 PM 41.0 °F - 39.2 °F 93% 30.11 in 7.0 mi Calm Calm - N/A   Overcast
1:35 PM 41.0 °F 39.0 °F 41.0 °F 100% 30.12 in 1.8 mi WSW 3.5 mph - 0.02 in Rain Heavy Rain
1:55 PM 41.0 °F - 41.0 °F 100% 30.12 in 3.0 mi Calm Calm - 0.03 in Rain Rain
2:15 PM 42.8 °F - 41.0 °F 93% 30.11 in 2.5 mi Calm Calm - 0.04 in Rain Rain
2:35 PM 42.8 °F - 41.0 °F 93% 30.10 in 2.0 mi Calm Calm - 0.06 in Rain Rain
2:55 PM 42.8 °F - 41.0 °F 93% 30.11 in 10.0 mi Calm Calm - 0.07 in Rain Rain
3:15 PM 42.8 °F - 41.0 °F 93% 30.11 in 5.0 mi Calm Calm - 0.01 in Rain Rain
3:35 PM 42.8 °F 41.1 °F 42.8 °F 100% 30.11 in 5.0 mi SW 3.5 mph - 0.01 in   Heavy Drizzle
3:55 PM 42.8 °F - 42.8 °F 100% 30.11 in 7.0 mi Calm Calm - 0.02 in Rain Rain
4:15 PM 44.6 °F 42.2 °F 42.8 °F 93% 30.10 in 3.0 mi South 4.6 mph - 0.02 in Rain Rain
4:35 PM 44.6 °F 41.4 °F 42.8 °F 93% 30.09 in 5.0 mi SSE 5.8 mph - 0.05 in Rain Rain
4:55 PM 44.6 °F 41.4 °F 42.8 °F 93% 30.09 in 7.0 mi South 5.8 mph - 0.06 in Rain Light Rain
5:15 PM 44.6 °F 42.2 °F 42.8 °F 93% 30.08 in 10.0 mi SSE 4.6 mph - N/A   Drizzle
5:35 PM 46.4 °F 44.3 °F 44.6 °F 93% 30.08 in 7.0 mi SE 4.6 mph - N/A   Drizzle
5:55 PM 48.2 °F - 46.4 °F 93% 30.08 in 10.0 mi SE 3.5 mph - N/A Rain Rain
6:15 PM 48.2 °F - 46.4 °F 93% 30.10 in 7.0 mi South 4.6 mph - N/A Rain Rain
6:35 PM 48.2 °F - 46.4 °F 93% 30.09 in 5.0 mi SSE 4.6 mph - 0.01 in Rain Heavy Rain
6:55 PM 50.0 °F - 46.4 °F 87% 30.08 in 7.0 mi SE 6.9 mph - 0.03 in Rain Light Rain
7:15 PM 50.0 °F - 46.4 °F 87% 30.08 in 4.0 mi SSE 3.5 mph - 0.03 in Rain Heavy Rain
7:35 PM 50.0 °F - 46.4 °F 87% 30.09 in 7.0 mi Calm Calm - 0.04 in Rain Rain
7:55 PM 50.0 °F - 46.4 °F 87% 30.09 in 10.0 mi Calm Calm - 0.06 in Rain Rain
8:15 PM 48.2 °F - 46.4 °F 93% 30.10 in 10.0 mi WSW 3.5 mph - N/A   Drizzle
8:35 PM 48.2 °F - 46.4 °F 93% 30.10 in 3.0 mi Calm Calm - 0.03 in Rain Heavy Rain
8:55 PM 48.2 °F - 46.4 °F 93% 30.09 in 5.0 mi Calm Calm - 0.06 in Rain Light Rain
9:15 PM 48.2 °F - 46.4 °F 93% 30.10 in 4.0 mi Calm Calm - 0.01 in Rain Rain
9:35 PM 48.2 °F - 46.4 °F 93% 30.07 in 1.2 mi Calm Calm - 0.02 in Rain Light Rain
9:55 PM 48.2 °F - 46.4 °F 93% 30.08 in 3.0 mi Calm Calm - 0.02 in   Drizzle
10:15 PM 48.2 °F - 46.4 °F 93% 30.09 in 3.0 mi Calm Calm - 0.02 in Rain Light Rain
10:35 PM 48.2 °F - 46.4 °F 93% 30.08 in 10.0 mi Calm Calm - 0.02 in   Light Drizzle
10:55 PM 48.2 °F - 46.4 °F 93% 30.07 in 10.0 mi Calm Calm - 0.02 in Rain Light Rain
11:15 PM 48.2 °F - 46.4 °F 93% 30.08 in 10.0 mi SSE 3.5 mph - N/A Rain Light Rain
11:35 PM 48.2 °F - 46.4 °F 93% 30.07 in 10.0 mi SSE 3.5 mph - N/A   Mostly Cloudy
11:55 PM 50.0 °F - 46.4 °F 87% 30.08 in 5.0 mi Calm Calm - N/A Rain Heavy Rain